This is the latest recevied weather packets stored in our database for station/object IZ5MMH-4. If no packets are shown the sender has not sent any weather packets the latest 10 day(s).
| Time | Temp. | Humidity | Pressure | Rain* | Wind** | Luminosity | Snow |
|---|---|---|---|---|---|---|---|
| 1777802679 | 21.11° C | 53% | 1022.7 hPa | - | - | - | - |
| 1777802078 | 21.11° C | 47% | 1022.9 hPa | - | - | - | - |
| 1777801478 | 21.11° C | 49% | 1022.8 hPa | - | - | - | - |
| 1777800878 | 21.11° C | 44% | 1022.8 hPa | - | - | - | - |
| 1777800278 | 20.56° C | 46% | 1022.8 hPa | - | - | - | - |
| 1777799678 | 20.56° C | 46% | 1022.8 hPa | - | - | - | - |
| 1777799078 | 20.56° C | 50% | 1022.7 hPa | - | - | - | - |
| 1777798478 | 20.56° C | 53% | 1022.6 hPa | - | - | - | - |
| 1777797878 | 20° C | 52% | 1022.5 hPa | - | - | - | - |
| 1777797278 | 20.56° C | 55% | 1022.4 hPa | - | - | - | - |
| 1777796679 | 20° C | 52% | 1022.4 hPa | - | - | - | - |
| 1777796078 | 20° C | 50% | 1022.2 hPa | - | - | - | - |
| 1777795479 | 19.44° C | 47% | 1022.3 hPa | - | - | - | - |
| 1777794878 | 19.44° C | 48% | 1022.1 hPa | - | - | - | - |
| 1777794278 | 18.89° C | 49% | 1022.2 hPa | - | - | - | - |
| 1777793678 | 18.89° C | 49% | 1022.3 hPa | - | - | - | - |
| 1777793078 | 18.89° C | 54% | 1022.3 hPa | - | - | - | - |
| 1777792479 | 18.33° C | 59% | 1022.4 hPa | - | - | - | - |
| 1777791878 | 18.33° C | 57% | 1022.5 hPa | - | - | - | - |
| 1777791278 | 18.33° C | 57% | 1022.6 hPa | - | - | - | - |
| 1777790678 | 17.78° C | 59% | 1022.5 hPa | - | - | - | - |
| 1777790079 | 17.78° C | 62% | 1022.6 hPa | - | - | - | - |
| 1777789479 | 17.22° C | 61% | 1022.7 hPa | - | - | - | - |
| 1777788879 | 17.22° C | 60% | 1022.7 hPa | - | - | - | - |
| 1777788278 | 16.67° C | 59% | 1022.7 hPa | - | - | - | - |
* Rain since midnight (hover to see other rain measurements)
** Current wind speed in m/s (hover to see current wind gust speed)